Find Starlink 35445

NORAD ID: 65880 Int'l Des: 2025-223 Owner: SPXS Country: US Constellation: starlink operational
LEOCIRCULAR

リアルタイム位置

3D地球を読み込み中...

Starlink 35445について

説明を読み込み中...

次回通過

Passes for default location (London). Set your location on the main map for personalized predictions.

高度履歴

Loading altitude history...

軌道要素

1 65880U 25223AC 26106.31110470 .00008423 00000-0 29618-3 0 9999
2 65880 53.1578 119.5638 0001129 81.0956 279.0173 15.30200772 29965
Epoch: Apr 16, 2026 • Age: 29 hours

現在のステータス

高度 480.9 km
速度 7.63 km/s
衛星直下点 52.84°N, 172.59°W
打ち上げ日 Oct 3, 2025
運用期間 0.5 years
タイプ internet

技術仕様

分類 Payload
質量 575.00 kg
乾燥質量 530.00 kg
総質量 575.00 kg
長さ 0.30 m
直径 4.10 m
スパン 29.00 m
形状 Box + pan
製造者 SPXS
バスタイプ Starlink V2MO
フェーズステータス In Orbit
所有者/国 SPXS/US

Most Searched